Weather History for Salina, KS

Change the Weather History Date:

Thursday, December 20, 2012

  Actual Average Record
Temperature  
Mean Temperature 27 °F 31 °F  
Max Temperature 35 °F 41 °F 69 °F (2004)
Min Temperature 19 °F 21 °F -10 °F (1983)
Degree Days  
Heating Degree Days 38 34  
Month to date heating degree days 636  
Since 1 July heating degree days 1588  
Cooling Degree Days 0 0  
Month to date cooling degree days 0  
Year to date cooling degree days 1647  
Moisture  
Dew Point 20 °F    
Average Humidity 75    
Maximum Humidity 93    
Minimum Humidity 52    
Precipitation  
Precipitation 0.01 in 0.03 in 1.00 in (1911)
Month to date precipitation 0.66  
Year to date precipitation 31.22  
Sea Level Pressure  
Sea Level Pressure 30.06 in    
Wind  
Wind Speed 29 mph (NW)    
Max Wind Speed 39 mph    
Max Gust Speed 53 mph    
Visibility 6 miles    
Events Fog , Snow    
T = Trace of Precipitation, MM = Missing Value Source: NWS Daily Summary

Daily Weather History Graph

Daily Weather History Graph

Search for Another Location

Airport:

Trip Planner

Search our weather history database for the weather conditions in past years. The results will help you decide how hot, cold, wet, or windy it might be!

Date:

Astronomy

Dec. 20, 2012 Rise Set
Actual Time 7:45 AM CST 5:11 PM CST
Civil Twilight 7:15 AM CST 5:41 PM CST
Nautical Twilight 6:41 AM CST 6:15 PM CST
Astronomical Twilight 6:09 AM CST 6:47 PM CST
Moon 12:27 PM CST (12/20) 12:36 AM CST (12/20)
Length of Visible Light 10h 26m
Length of Day
9h 26m
First Quarter, 55% of the Moon is Illuminated
Dec 20
First Quarter
Dec 28
Full
Jan 4
Last Quarter
Jan 11
New
Jan 18
First Quarter

Hourly Weather History & Observations

Time (CST) Temp. Windchill Dew Point Humidity Pressure Visibility Wind Dir Wind Speed Gust Speed Precip Events Conditions
12:04 AM 30.2 °F 13.9 °F 28.4 °F 93% 29.67 in 1.2 mi North 36.8 mph 47.2 mph N/A   Overcast
12:32 AM 30.2 °F 13.9 °F 28.4 °F 93% 29.72 in 1.0 mi NNW 36.8 mph 49.5 mph 0.01 in   Overcast
12:53 AM 30.0 °F 14.7 °F 27.0 °F 88% 29.76 in 1.2 mi NNW 31.1 mph 46.0 mph 0.01 in   Overcast
1:31 AM 28.4 °F 11.6 °F 26.6 °F 93% 29.78 in 1.0 mi NNW 35.7 mph 46.0 mph N/A   Overcast
1:53 AM 28.9 °F 12.8 °F 26.1 °F 89% 29.82 in 1.0 mi NNW 33.4 mph 46.0 mph 0.00 in Snow Light Snow
2:08 AM 28.4 °F 12.7 °F 24.8 °F 86% 29.82 in 0.8 mi NNW 29.9 mph 52.9 mph 0.00 in Snow Light Snow
2:14 AM 28.4 °F 11.4 °F 26.6 °F 93% 29.81 in 1.0 mi NNW 36.8 mph 47.2 mph 0.00 in Snow Light Snow
2:23 AM 28.4 °F 11.0 °F 24.8 °F 86% 29.82 in 0.5 mi NNW 39.1 mph 50.6 mph 0.00 in Fog , Snow Snow
2:53 AM 28.0 °F 11.3 °F 25.0 °F 88% 29.89 in 0.5 mi NW 34.5 mph 43.7 mph 0.00 in Fog , Snow Snow
3:29 AM 26.6 °F 10.0 °F 24.8 °F 93% 29.90 in 0.8 mi NW 31.1 mph 43.7 mph 0.00 in   Mist
3:53 AM 27.0 °F 10.5 °F 24.1 °F 89% 29.95 in 1.0 mi NW 31.1 mph 41.4 mph 0.00 in   Overcast
4:07 AM 28.4 °F 13.0 °F 21.2 °F 74% 29.93 in 1.8 mi NW 28.8 mph 40.3 mph N/A   Haze
4:11 AM 28.4 °F 11.8 °F 21.2 °F 74% 29.93 in 3.0 mi NW 34.5 mph 40.3 mph N/A   Haze
4:17 AM 26.6 °F 9.8 °F 21.2 °F 80% 29.94 in 1.8 mi NW 32.2 mph 49.5 mph N/A   Haze
4:29 AM 26.6 °F 9.6 °F 21.2 °F 80% 29.94 in 2.0 mi NW 33.4 mph 41.4 mph N/A   Haze
4:48 AM 26.6 °F 9.8 °F 19.4 °F 74% 29.95 in 3.0 mi NW 32.2 mph 43.7 mph N/A   Haze
4:53 AM 27.0 °F 10.3 °F 19.9 °F 75% 29.98 in 2.5 mi NW 32.2 mph 43.7 mph N/A   Haze
5:18 AM 26.6 °F 9.8 °F 19.4 °F 74% 29.97 in 3.0 mi NW 32.2 mph 39.1 mph N/A   Haze
5:53 AM 27.0 °F 10.5 °F 18.0 °F 69% 30.01 in 10.0 mi NW 31.1 mph 38.0 mph N/A   Scattered Clouds
6:53 AM 26.1 °F 9.6 °F 16.0 °F 66% 30.06 in 10.0 mi NW 29.9 mph 41.4 mph N/A   Clear
7:53 AM 24.1 °F 8.0 °F 16.0 °F 71% 30.12 in 9.0 mi NW 25.3 mph 31.1 mph 0.00 in   Clear
8:53 AM 25.0 °F 10.2 °F 16.0 °F 69% 30.16 in 9.0 mi NW 21.9 mph - N/A   Clear
9:53 AM 26.1 °F 11.3 °F 16.0 °F 66% 30.19 in 9.0 mi NW 23.0 mph - N/A   Clear
10:53 AM 28.0 °F 13.9 °F 16.0 °F 61% 30.22 in 9.0 mi NW 23.0 mph 32.2 mph N/A   Clear
11:53 AM 30.0 °F 16.6 °F 17.1 °F 59% 30.23 in 9.0 mi NW 23.0 mph - N/A   Clear
12:53 PM 32.0 °F 19.5 °F 19.0 °F 59% 30.23 in 9.0 mi NW 21.9 mph - N/A   Clear
1:53 PM 34.0 °F 22.1 °F 19.9 °F 56% 30.25 in 9.0 mi NW 21.9 mph 28.8 mph N/A   Clear
2:53 PM 34.0 °F 23.0 °F 19.0 °F 54% 30.26 in 9.0 mi NW 18.4 mph - N/A   Clear
3:53 PM 35.1 °F 25.9 °F 19.0 °F 52% 30.27 in 10.0 mi NW 13.8 mph - N/A   Clear
4:53 PM 33.1 °F 24.9 °F 19.0 °F 56% 30.27 in 10.0 mi WNW 10.4 mph - N/A   Clear
5:53 PM 27.0 °F 18.7 °F 17.1 °F 66% 30.29 in 10.0 mi West 8.1 mph - N/A   Clear
6:53 PM 25.0 °F 15.5 °F 16.0 °F 69% 30.30 in 10.0 mi West 9.2 mph - N/A   Clear
7:53 PM 25.0 °F 17.1 °F 16.0 °F 69% 30.32 in 10.0 mi SW 6.9 mph - N/A   Clear
8:53 PM 25.0 °F 15.5 °F 15.1 °F 66% 30.32 in 10.0 mi WSW 9.2 mph - N/A   Clear
9:53 PM 21.9 °F 13.4 °F 15.1 °F 75% 30.32 in 10.0 mi WSW 6.9 mph - N/A   Clear
10:53 PM 19.0 °F 12.3 °F 12.9 °F 77% 30.33 in 10.0 mi SW 4.6 mph - N/A   Clear
11:53 PM 19.9 °F - 14.0 °F 78% 30.33 in 10.0 mi Calm Calm - N/A   Clear